Location: Ceske Budejovice
(48.9830°N, 14.4670°E)
Time: 00:11:37
(UTC+01:00)

ISS - Pass Details

Date: 02 October 2020
Orbit: 417 x 420 km, 51.6° (Epoch: 30 October)

Event Time Altitude Azimuth Distance (km) Brightness Sun altitude
Rises 20:20:10 0° 290° (WNW) 2,369 1.8 -17.5°
Reaches altitude 10° 20:22:18 10° 285° (WNW) 1,503 0.4 -17.8°
Maximum altitude 20:25:34 49° 209° (SSW) 547 -3.2 -18.3°
Enters shadow 20:26:14 42° 170° (S) 614 -3.2 -18.4°
